Simultaneous Nadir Overpasses (SNOs) Predictions

Prediction of SNOs between AQUA and METOP-A Satellite Orbit:

Table of predicted SNOs for the next 14.0 days since TLE Epoch: 11/13/2021
Index Date (AQUA) Time (AQUA) Lat,Lon (AQUA) SZA (AQUA ) Date (METOP-A) Time (METOP-A) Lat,Lon (METOP-A) SZA (METOP-A ) Distance(km) Time Diff (sec)
1 11/15/2021 14:24:32 77.94, -54.47 96.87 11/15/2021 14:24:02 77.93, -54.45 96.87 1.37 30
2 11/15/2021 15:13:58 -77.95, 113.12 83.11 11/15/2021 15:14:42 -77.98, 113.13 83.09 3.17 44
3 11/18/2021 09:58:47 77.95, 11.94 97.57 11/18/2021 09:58:20 77.92, 11.87 97.56 2.95 27
4 11/18/2021 10:48:13 -77.96, 179.54 82.41 11/18/2021 10:49:00 -77.98, 179.46 82.40 3.04 47
5 11/21/2021 05:33:03 77.96, 78.30 98.24 11/21/2021 05:32:38 77.96, 78.39 98.24 2.09 25
6 11/21/2021 06:22:29 -77.97,-114.08 81.75 11/21/2021 06:23:19 -77.97,-114.22 81.75 3.16 50
7 11/24/2021 01:07:18 77.95, 144.82 98.82 11/24/2021 01:06:57 77.95, 144.69 98.84 3.20 21
8 11/24/2021 01:56:45 -77.99, -47.75 81.12 11/24/2021 01:57:37 -78.01, -47.71 81.12 1.95 52
9 11/26/2021 20:41:33 77.98,-148.90 99.42 11/26/2021 20:41:14 77.98,-148.82 99.42 1.76 19



Historial Predications of SNOs between AQUA and METOP-A
